Location: Avebury
(53.1487°N, 106.9774°W)
Time: 12:28:56
(UTC+00:00)

N. Korean satellite - Visible Passes

Search period start: 22 January 2022 00:00
Search period end: 01 February 2022 00:00
Orbit: 447 x 491 km, 97.3° (Epoch: 21 January)

Date Brightness Start Highest point End Pass type
(mag) Time Alt. Az. Time Alt. Az. Time Alt. Az.
22 Jan 6.9 12:25:42 10° NNE 12:29:19 66° ESE 12:30:22 42° SSE visible
22 Jan 8.2 13:59:53 10° NNW 14:02:02 15° WNW 14:04:12 10° W visible
23 Jan 9.8 00:40:20 10° WSW 00:42:09 13° W 00:43:59 10° WNW visible
23 Jan 8.3 11:56:45 10° NNE 12:00:04 32° E 12:01:17 25° SE visible
23 Jan 7.5 13:30:02 10° N 13:33:08 27° WNW 13:35:21 15° WSW visible
24 Jan 9.1 00:09:44 10° SSW 00:12:43 26° W 00:15:45 10° NW visible
24 Jan 9.5 11:28:14 10° NE 11:30:40 17° E 11:32:12 14° ESE visible
24 Jan 6.7 13:00:34 10° N 13:04:07 51° WNW 13:06:16 21° SW visible
25 Jan 6.6 12:31:17 10° NNE 12:34:57 77° ESE 12:37:11 22° S visible
25 Jan 8.4 14:05:43 10° NNW 14:07:36 14° WNW 14:09:28 10° W visible
26 Jan 10.0 00:46:23 10° WSW 00:47:48 12° W 00:49:14 10° WNW visible
26 Jan 8.1 12:02:15 10° NNE 12:05:40 36° E 12:08:06 17° SSE visible
26 Jan 7.7 13:35:42 10° N 13:38:40 24° WNW 13:41:37 10° WSW visible
27 Jan 9.3 00:15:26 10° SSW 00:18:18 23° W 00:21:12 10° NW visible
27 Jan 9.3 11:33:35 10° NE 11:36:16 19° E 11:38:55 10° SE visible
27 Jan 6.8 13:06:07 10° N 13:09:37 44° WNW 13:13:05 10° SW visible
28 Jan 6.5 12:36:47 10° NNE 12:40:27 88° ESE 12:44:03 10° SSW visible
28 Jan 8.5 14:11:29 10° NNW 14:13:01 12° WNW 14:14:32 10° W visible
29 Jan 10.2 00:52:31 10° W 00:53:19 11° W 00:54:08 10° WNW visible
29 Jan 7.8 12:07:39 10° NNE 12:11:08 42° E 12:14:36 10° S visible
29 Jan 7.8 13:41:15 10° NNW 13:44:04 21° WNW 13:46:52 10° WSW visible
30 Jan 9.6 00:21:02 10° SW 00:23:45 21° W 00:26:31 10° NW visible
30 Jan 9.1 11:38:50 10° NE 11:41:42 21° E 11:44:33 10° SE visible
30 Jan 7.0 13:11:33 10° N 13:15:00 39° WNW 13:18:24 10° SW visible
31 Jan 9.9 11:10:59 10° ENE 11:12:08 11° E 11:13:17 10° ESE visible
31 Jan 6.4 12:42:08 10° NNE 12:45:47 81° WNW 12:49:25 10° SSW visible
31 Jan 8.6 14:17:13 10° NW 14:18:18 11° NW 14:19:22 10° WNW visible
